Location: Bakersfield
(35.3730°N, 119.0180°W)
Time: 18:33:22
(UTC-08:00)

Daily predictions for brighter satellites

Satellite Brightness Start Highest point End
(mag) Time Altitude Azimuth Time Altitude Azimuth Time Altitude Azimuth
BREEZE-M DEB (TANK) 4.2 18:08:37 10° NNE 18:09:21 11° NNE 18:10:12 10° NE
Meteor 1-18 Rocket 4.3 18:06:20 10° N 18:11:51 59° E 18:17:22 10° SSE
YAOGAN 1 4.4 18:08:54 10° SSW 18:12:54 37° W 18:16:56 10° NNW
SL-16 R/B 2.4 18:09:21 10° N 18:14:54 52° ENE 18:20:24 10° SE
Resurs 01 Rocket 3.1 18:13:28 10° ESE 18:16:21 17° ENE 18:19:13 10° NNE
Cosmos 1340 4.0 18:14:24 10° NNE 18:17:09 19° ENE 18:19:53 10° ESE
TSX-5 3.9 18:14:09 10° S 18:17:09 34° ESE 18:20:04 10° NE
Cosmos 1992 Rocket 4.2 18:13:43 10° NNW 18:18:58 82° WSW 18:24:11 10° SSE
Cosmos 407 Rocket 3.5 18:14:23 10° S 18:19:34 78° ESE 18:24:52 10° NNE
Nadezhda 1 Rocket 3.9 18:13:54 10° N 18:19:59 75° E 18:26:02 10° S
DNEPR-1 R/B 3.9 18:16:30 10° NNW 18:20:31 41° NE 18:24:35 10° SE
Cosmos 676 Rocket 4.1 18:16:48 10° S 18:21:49 54° ESE 18:26:53 10° NNE
Cosmos 1238 Rocket 3.9 18:21:17 10° NE 18:22:57 14° ENE 18:24:36 10° ESE
Gbstr 26 Del rocket 3.5 18:19:52 10° SSW 18:23:26 33° SE 18:26:34 11° ENE
Tiangong 2 2.0 18:21:23 10° NW 18:24:14 32° NNE 18:26:33 13° E
DELTA 2 R/B (1) 3.9 18:18:48 10° WNW 18:24:20 58° N 18:29:25 12° E
Meteor 1-20 Rocket 4.3 18:19:12 10° S 18:25:00 86° E 18:30:53 10° N
Meteor 1-28 Rocket 4.0 18:22:46 10° N 18:26:31 57° WNW 18:30:15 10° SSW
BREEZE-M DEB (TANK) 3.8 18:19:41 10° NW 18:28:17 49° NNE 18:30:58 13° E
Cosmos 1300 Rocket 4.1 18:27:45 10° SSE 18:31:43 34° E 18:35:44 10° NNE
Cosmos 2322 Rocket 2.1 18:27:10 10° NNW 18:32:47 78° ENE 18:38:23 10° SSE
Cosmos 1536 4.1 18:30:02 10° SE 18:32:53 19° E 18:35:44 10° NE
Cosmos 44 Rocket 4.2 18:28:59 10° NW 18:33:34 50° WSW 18:38:03 10° S
Cosmos 2181 Rocket 4.4 18:28:29 10° N 18:34:21 40° E 18:40:14 10° SSE
COSMO-SKYMED 1 4.2 18:31:02 10° N 18:35:02 38° WNW 18:39:03 10° SW
Okean 1 3.2 18:37:32 10° N 18:41:36 75° E 18:45:39 10° S
Cosmos 1140 Rocket 3.6 18:39:35 10° S 18:44:32 52° ESE 18:49:31 10° NNE
ATLAS CENTAUR R/B 3.6 18:41:37 10° S 18:45:04 16° SE 18:45:58 15° ESE
Cosmos 1461 2.7 18:41:19 10° NNW 18:45:19 66° ENE 18:49:26 10° SE
Cosmos 2322 4.4 18:40:26 10° N 18:45:32 32° ENE 18:49:34 15° ESE
FENGYUN 3A 3.8 18:40:45 10° SSE 18:45:56 50° ENE 18:51:09 10° N
H-2A R/B 3.5 18:45:20 15° SE 18:47:42 28° ENE 18:50:54 10° NNE
Cosmos 1709 Rocket 3.9 18:44:12 10° S 18:50:27 83° E 18:56:39 10° N
Cosmos 44 4.0 18:48:49 10° NW 18:53:02 48° WSW 18:57:09 10° S
SL-19 R/B 4.5 18:48:47 10° SE 18:54:11 51° ENE 18:59:53 10° N
Spot 2 Rocket 3.7 18:50:00 10° SE 18:54:47 46° ENE 18:59:36 10° N
Cosmos 2151 Rocket 4.5 18:51:57 10° SSW 18:56:20 52° W 19:00:46 10° N
Cosmos 614 Rocket 4.1 18:51:51 10° S 18:56:45 50° ESE 19:01:38 10° NNE
Cosmos 2292 Rocket 4.4 18:52:56 10° SSW 18:57:33 72° W 19:03:53 10° N
Helios 1A 4.1 18:58:09 23° ENE 18:58:09 23° ENE 19:01:00 10° NNE
Cosmos 1812 4.4 18:54:16 10° NNW 18:57:50 37° W 19:01:23 10° SSW
COSMOS 2428 3.9 18:54:10 10° N 18:58:29 22° ENE 18:59:03 21° ENE
Meteor 2-4 Rocket 4.1 18:54:48 10° N 18:59:56 37° ENE 19:04:54 10° SE
HJ-1C 3.2 18:59:18 10° SSE 19:02:40 77° ENE 19:06:03 10° N
Okean 1 Rocket 3.0 18:58:17 10° S 19:02:41 61° E 19:07:07 10° NNE
Cosmos 1850 Rocket 4.2 18:58:34 10° S 19:03:37 49° ESE 19:08:45 10° NNE
GPS 2-04 Rocket1 3.8 19:00:13 10° SW 19:04:08 34° SSE 19:05:18 29° ESE
Abrixas rocket 3.7 19:03:36 10° SSW 19:05:50 24° SSE 19:05:50 24° SSE
Meteor 1-11 Rocket 3.7 19:06:47 10° S 19:12:31 89° E 19:18:26 10° N
GEOS 3 Rocket 4.4 19:11:23 10° NNE 19:16:27 51° NW 19:21:33 10° SW
Cosmos 2219 3.2 19:13:17 10° S 19:18:52 55° ESE 19:23:09 17° NE
Cosmos 1633 3.8 19:15:51 10° SSW 19:19:21 44° W 19:22:54 10° N
Helios 1B rocket 2.4 19:20:33 52° ENE 19:20:59 55° E 19:25:02 10° S
Okean 1-7 Rocket 3.5 19:20:22 10° N 19:24:52 61° E 19:25:47 49° SE
Cosmos 2360 Rocket 2.1 19:19:15 10° NNW 19:24:56 80° ENE 19:28:57 20° SSE
Cosmos 2219 Rocket 3.8 19:23:38 10° N 19:25:54 18° NNE 19:25:54 18° NNE
OAO 3 Copernicus 4.3 19:24:44 10° W 19:29:48 74° SSW 19:30:52 54° SE
Cosmos 1025 Rocket 4.0 19:29:55 10° N 19:32:29 33° NNE 19:32:29 33° NNE
ALOS 3.3 19:30:26 10° S 19:34:54 46° W 19:39:24 10° NNW
Spot 1 4.4 19:37:58 49° N 19:37:58 49° N 19:41:01 10° N
BREEZE-M DEB (TANK) 3.6 19:35:48 10° WSW 19:39:12 39° WNW 19:39:12 39° WNW
Meteor 2-13 Rocket 4.4 19:38:19 10° S 19:45:02 54° ENE 19:50:10 10° NNE
Resurs 01 Rocket 3.1 19:48:26 10° SSW 19:52:29 36° W 19:56:35 10° NNW
Cosmos 2333 Rocket 4.0 19:49:03 10° N 19:51:05 19° NNE 19:51:05 19° NNE
BREEZE-M DEB (TANK) 4.4 19:52:38 10° NW 19:56:37 51° NE 19:56:45 51° NE
H-2A R/B (2) 3.7 19:55:04 10° SW 19:55:29 13° SW 19:55:29 13° SW
Tiangong 2 4.2 19:57:49 10° WNW 19:58:33 16° W 19:58:33 16° W
Cosmos 1610 Rocket 4.4 20:02:36 10° S 20:08:52 81° W 20:15:06 10° N
Cosmos 1570 Rocket 4.4 20:05:04 10° NNW 20:09:45 61° WNW 20:09:45 61° WNW
DELTA 2 R/B (1) 3.9 20:05:23 10° WNW 20:10:13 64° W 20:10:13 64° W
COSMOS 2428 4.1 20:37:32 10° NNW 20:41:08 35° WNW 20:41:08 35° WNW
